Regional Weather Roundup
Issued by NWS

Home | Current Version | Previous Version | Text Only | Print | Product List | Glossary Off
Versions: 1 2 3 4 5 6 7 8 9 10 11 12 13 14 15 16 17 18 19 20 21 22 23 24 25 26 27 28 29 30 31 32 33 34 35 36 37 38 39 40 41 42 43 44 45 46 47 48 49 50

000
ASUS43 KIND 231509
RWRIN

WEATHER ROUNDUP FOR INDIANA
NATIONAL WEATHER SERVICE INDIANAPOLIS IN
1100 AM EDT SUN JUL 23 2017

NOTE: "FAIR" INDICATES FEW OR NO CLOUDS BELOW 12,000 FEET WITH NO
SIGNIFICANT WEATHER AND/OR OBSTRUCTIONS TO VISIBILITY.

* - STATION DOES NOT REPORT WEATHER SUCH AS PRECIPITATION OR FOG.

+ - STATION NOT QUALITY CONTROLLED BY THE NATIONAL WEATHER SERVICE.
    USE DATA WITH CAUTION...ESPECIALLY DEWPOINT AND RELATIVE
    HUMIDITY OBSERVATIONS.

INZ001>003-010>013-019-020-231600-
NORTHWEST INDIANA

CITY           SKY/WX    TMP DP  RH WIND       PRES   REMARKS
GARY /AIRPORT/ PTSUNNY   82  70  65 VRB5      29.81F
KNOX *+        CLOUDY    79  72  78 S3        29.81F
LA PORTE +     MOSUNNY   79  72  79 SW3       29.82F
MICHIGAN CITY+ MOSUNNY   79  70  73 W5        29.81F
MONTICELLO +   HVY RAIN  72  70  93 N17G30    29.82S VSB 3/4
RENSSELAER +   CLOUDY    79  73  83 W3        29.82S
VALPARAISO     MOSUNNY   82  74  76 VRB3      29.82S

$$

LMZ046-743>745-231600-
SOUTHERN LAKE MICHIGAN

STATION/POSITION TIME  TEMP    WIND        PRES    WAVE
                       AIR SEA DIR/SP/G            HT
                 (UTC) (F)     (DEG/KT/KT) (MB)    (FT)
BURNS HARBOR     1440   77      40/  4/  4 1009.8F
MICHIGAN CITY    1440   77      CALM  /  1   N/A
5NW MICH CITY    1500   76 76   CALM  /  2   N/A     0

$$

INZ004-005-014>016-021>024-231600-
NORTH CENTRAL INDIANA

CITY           SKY/WX    TMP DP  RH WIND       PRES   REMARKS
ELKHART        PTSUNNY   79  68  69 NW3       29.81F
GOSHEN         PTSUNNY   79  67  66 SW7       29.81F
LOGANSPORT +   LGT RAIN  77  73  88 SW6       29.82F
PERU/GRISSOM   CLOUDY    77  77  98 SW8       29.81F
ROCHESTER +    PTSUNNY   79  72  78 CALM      29.83S
SOUTH BEND     CLOUDY    79  69  71 SW6       29.82F
WARSAW +       CLOUDY    75  70  83 CALM      29.82F

$$

INZ006>009-017-018-025>027-231600-
NORTHEAST INDIANA

CITY           SKY/WX    TMP DP  RH WIND       PRES   REMARKS
AUBURN +       CLOUDY    75  70  83 CALM      29.82F
FORT WAYNE     CLOUDY    77  71  82 SW7       29.82F
HUNTINGTON +   CLOUDY    77  73  87 CALM      29.82F
KENDALLVILLE + CLOUDY    78  70  76 W5        29.82F

$$

INZ028-029-035-036-043>045-051>053-231600-
WEST CENTRAL INDIANA

CITY           SKY/WX    TMP DP  RH WIND       PRES   REMARKS
GREENCASTLE +  CLOUDY    73  72  94 NE6       29.81F
LAFAYETTE      CLOUDY    77  76  96 S3        29.80F
TERRE HAUTE    CLOUDY    75  71  87 W6        29.81F

$$

INZ030>032-037>040-046>048-054>057-064-065-231600-
CENTRAL INDIANA

CITY           SKY/WX    TMP DP  RH WIND       PRES   REMARKS
CP ATTERBURY + LGT RAIN  72  70  94 CALM      29.85F
COLUMBUS       CLOUDY    72  68  88 W12G21    29.88F
FRANKFORT +    CLOUDY    73  71  93 CALM      29.86F
GREENWOOD *+   CLOUDY   N/A N/A N/A W12       29.87F
INDIANAPOLIS   CLOUDY    73  72  96 SW9       29.81F
-EAGLE CREEK   CLOUDY    73  71  93 VRB3      29.83F
KOKOMO +       CLOUDY    76  73  91 SW9       29.84S
MT COMFORT *+  CLOUDY    72  70  94 SW14      29.87F
SHELBYVILLE    LGT RAIN  74  69  85 W12       29.86F
ZIONSVILLE +   LGT RAIN  70  67  91 SW8       29.85F

$$

INZ033-034-041-042-049-050-058-059-231600-
EAST CENTRAL INDIANA

CITY           SKY/WX    TMP DP  RH WIND       PRES   REMARKS
MUNCIE         CLOUDY    75  70  84 SW10G18   29.85R
RICHMOND +     CLOUDY    70  68  94 W16G22    29.88F

$$

INZ060-061-067>069-081>083-085>088-231600-
SOUTHWEST INDIANA

CITY           SKY/WX    TMP DP  RH WIND       PRES   REMARKS
EVANSVILLE     CLOUDY    74  71  91 S3        29.90S
HUNTINGBURG *+ CLOUDY    73  71  93 SE8       29.88F

$$

INZ062-063-066-070>080-084-089>092-231600-
SOUTH CENTRAL AND SOUTHEAST INDIANA

CITY           SKY/WX    TMP DP  RH WIND       PRES   REMARKS
BEDFORD +      CLOUDY    72  66  83 NE6       29.81F THUNDER
BLOOMINGTON    CLOUDY    73  69  87 VRB3      29.81F
MADISON *+     CLOUDY    70  68  94 W3        29.95F
NORTH VERNON + RAIN      68  68 100 SW9       29.92F
SEYMOUR +      TSTM     N/A N/A N/A W9        29.89F

$$





USA.gov is the U.S. government's official web portal to all federal, state and local government web resources and services.